Regional Weather Roundup
Issued by NWS Sioux Falls, SD

Home | Current Version | Previous Version | Graphics & Text | Print | Product List | Glossary Off
Versions: 1 2 3 4 5 6 7 8 9 10 11 12 13 14 15 16 17 18 19 20 21 22 23 24 25 26 27 28 29 30 31 32 33 34 35 36 37 38 39 40 41 42 43 44 45 46 47 48 49 50

000
ASUS43 KFSD 230602
RWRFSD

WEATHER ROUNDUP FOR SE SOUTH DAKOTA/SW MINNESOTA/NW IOWA
NATIONAL WEATHER SERVICE SIOUX FALLS SD
100 AM CDT WED APR 23 2014

NOTE: "FAIR" INDICATES FEW OR NO CLOUDS BELOW 12,000 FEET WITH NO
SIGNIFICANT WEATHER AND OR OBSTRUCTIONS TO VISIBILITY.


SDZ038>040-050-052>070-230700-
SOUTHEAST SOUTH DAKOTA

CITY           SKY/WX    TMP DP  RH WIND       PRES   REMARKS
CHAMBERLAIN      N/A     58  33  39 SE24G36   29.76F
6HR MIN TEMP:  58; 6HR MAX TEMP:  69;

HURON          CLOUDY    58  33  39 SE16G32   29.83S
6HR MIN TEMP:  58; 6HR MAX TEMP:  63;

MADISON        MOCLDY    52  34  50 SE20G29   29.92F
MITCHELL       MOCLDY    57  35  43 SE22      29.85F
6HR MIN TEMP:  57; 6HR MAX TEMP:  65;

SIOUX FALLS    FAIR      55  34  45 SE17      29.93S
6HR MIN TEMP:  54; 6HR MAX TEMP:  63;

WINNER         CLOUDY    61  32  33 SE10      29.77R
YANKTON        FAIR      57  34  41 E14G20    29.91S
$$

MNZ071-072-080-081-089-090-097-098-230700-
SOUTHWEST MINNESOTA

CITY           SKY/WX    TMP DP  RH WIND       PRES   REMARKS
FAIRMONT       CLOUDY    50  30  46 SE10      30.06R
JACKSON        CLOUDY    50  32  50 SE13      30.02F
LUVERNE        FAIR      55  34  44 SE12      29.97S
MARSHALL       MOCLDY    54  30  40 SE16      29.99R
6HR MIN TEMP:  54; 6HR MAX TEMP:  63;

MONTEVIDEO     FAIR      50  34  53 S12       30.00S
PIPESTONE      FAIR      54  36  50 SE10      29.96R
REDWOOD FALLS  FAIR      51  30  44 SE12      30.01F
TRACY          CLOUDY    53  33  47 SE13G18   30.00S
WINDOM         CLOUDY    52  34  50 SE12      30.01F
WORTHINGTON    FAIR      52  30  43 SE17      30.01F
$$

IAZ001>003-012>014-020>022-031-032-NEZ013-014-SDZ071-230700-
NORTHWEST IOWA

CITY           SKY/WX    TMP DP  RH WIND       PRES   REMARKS
DENISON        CLOUDY    54  34  47 SE8       29.99S
ESTHERVILLE    MOCLDY    49  39  68 SE10      30.03S
SIOUX CITY     FAIR      57  34  41 SE14      29.95S
6HR MIN TEMP:  56; 6HR MAX TEMP:  66;

SPENCER        CLOUDY    54  36  50 SE16      30.01F
6HR MIN TEMP:  54; 6HR MAX TEMP:  62;

STORM LAKE     CLOUDY    52  37  58 SE12      30.01F
$$

ABBREVIATIONS USED IN REMARKS
   TC - TEMPERATURE IN CELSIUS
  WCI - WIND CHILL INDEX
   HX - HEAT INDEX
  VSB - VISIBILITY




USA.gov is the U.S. government's official web portal to all federal, state and local government web resources and services.